Probability
3 0 0 0 3 0 0 0 0 0 3 3 3 3 3 3 10 10 23 32 29 45 52 65 74 68 65 65 68 71 71 77 81 81 77 81 84 84 81 77 74 71 74 71 71 71 68 65 61
0 0 0 0 0 0 0 0 0 0 3 3 3 3 10 16 26 35 32 35 32 35 45 48 74 71 65 65 68 68 71 74 77 71 71 74 77 77 74 68 71 71 71 68 68 68 55 58 58
0 0 0 0 0 0 0 0 0 0 3 6 6 10 10 16 32 39 35 32 32 39 39 55 71 71 65 65 61 61 68 71 71 71 74 74 74 77 74 71 65 65 61 61 61 58 55 55 55
0 0 0 0 0 0 0 0 0 0 10 6 10 10 10 19 26 35 35 35 32 35 42 58 77 71 71 65 61 61 58 68 71 65 68 71 68 71 61 65 61 58 58 55 58 52 55 55 48
0 0 0 0 0 0 0 0 0 3 6 10 13 10 13 23 35 45 29 26 32 35 45 55 77 77 68 68 58 61 61 61 65 65 61 61 65 61 61 61 61 61 58 58 61 52 45 45 48
0 0 0 0 0 0 0 0 0 3 6 16 13 13 16 26 32 45 29 29 32 35 48 61 77 71 68 65 71 65 61 65 61 55 58 58 61 58 58 61 58 61 58 48 48 39 29 35 35
0 0 0 0 0 0 0 0 3 6 6 10 19 10 16 23 29 35 32 32 35 39 48 48 55 58 68 68 68 65 61 58 55 58 61 58 52 55 58 55 55 58 55 52 45 35 35 32 32
0 0 0 0 0 0 0 0 3 6 6 10 16 13 10 19 29 32 26 29 32 39 39 45 39 42 45 58 65 61 61 52 52 52 55 48 52 48 42 52 52 45 39 35 39 26 26 26 26
0 0 0 0 0 0 0 0 3 6 6 13 16 13 6 16 19 32 29 32 29 29 23 26 29 35 32 39 48 48 45 42 45 45 45 39 26 26 35 39 42 42 35 35 29 26 26 23 26
0 0 0 0 0 0 0 0 3 3 13 13 16 19 19 23 23 26 26 32 26 23 23 23 32 29 29 32 32 19 19 19 19 19 26 16 13 16 29 52 45 42 39 35 19 26 26 23 16
0 0 0 0 0 0 0 0 3 3 6 13 19 23 16 19 23 19 23 26 35 29 19 19 29 26 32 19 19 19 19 19 19 19 13 10 13 13 13 23 29 32 29 16 16 23 16 16 3
0 0 0 0 0 0 0 0 3 3 3 10 19 23 19 16 19 16 26 23 32 29 23 16 16 19 23 16 19 19 19 19 16 16 10 10 10 10 13 6 10 13 13 10 6 6 6 3 3
0 0 0 0 0 0 0 0 3 6 6 6 19 23 19 13 16 16 19 23 26 29 26 23 26 16 19 16 16 16 16 16 16 16 10 6 6 6 6 3 6 10 10 6 3 3 3 3 3
0 0 0 0 0 0 0 0 0 6 6 10 10 19 19 16 13 16 19 19 26 26 26 26 26 23 23 19 16 19 16 16 13 13 10 6 6 3 3 3 3 6 6 3 3 3 3 3 3
0 0 0 0 0 0 0 0 0 3 6 10 10 13 16 19 23 19 19 19 26 23 23 19 23 23 23 23 19 19 16 19 16 13 10 6 3 3 0 0 3 6 3 3 3 3 3 3 3
0 0 0 0 0 0 0 0 0 3 10 6 6 10 13 16 29 19 19 19 29 23 19 16 26 26 26 19 19 19 19 19 16 13 13 10 3 6 0 0 6 3 3 3 3 3 0 0 0
0 0 0 0 0 0 0 0 3 6 3 3 6 6 13 16 23 26 26 29 32 29 23 19 23 23 16 16 23 19 13 13 16 16 16 13 10 10 6 6 6 6 6 3 3 3 0 0 0
0 0 0 0 0 0 0 3 3 6 3 3 3 6 13 23 26 26 32 29 29 26 26 26 19 19 19 19 19 13 10 10 10 10 6 6 6 6 6 6 3 0 6 6 3 3 3 0 0
0 0 0 0 0 0 0 0 3 3 6 6 6 10 10 16 23 32 35 32 32 32 32 29 29 26 23 19 19 16 16 16 6 6 10 6 6 3 6 6 3 0 6 6 3 0 0 0 0
0 0 0 0 0 0 0 0 0 3 6 6 10 10 3 16 23 32 35 32 35 32 32 32 29 23 23 19 16 16 16 13 13 6 10 10 6 10 10 3 3 3 3 3 3 3 3 3 0
0 0 0 0 0 0 0 0 0 6 6 6 6 6 10 13 23 32 35 35 29 29 29 32 29 26 23 19 13 13 16 13 13 13 10 10 10 13 10 3 3 3 3 3 0 3 3 3 3
0 0 0 0 0 0 0 0 0 3 6 6 6 6 13 16 19 26 29 26 32 26 23 23 26 26 26 23 19 19 19 16 13 10 13 10 10 13 10 10 3 3 3 3 0 3 3 3 3
0 0 0 0 0 0 0 0 0 0 6 10 3 10 13 16 16 16 26 26 29 29 23 23 23 26 19 16 16 13 13 10 10 6 10 6 6 3 10 6 6 3 3 3 3 3 3 3 3
0 0 0 0 0 0 0 0 0 0 3 6 6 13 16 16 16 19 16 16 29 29 29 26 29 19 19 19 16 10 10 10 10 13 13 10 3 3 3 3 6 3 3 3 3 3 3 3 3
0 0 0 0 0 0 0 0 0 3 3 0 3 10 13 16 13 16 19 19 32 26 29 29 19 16 13 13 16 10 10 10 13 13 13 10 3 3 3 3 3 6 3 3 3 3 3 3 3
0 0 0 0 0 0 0 0 0 0 0 0 3 10 6 16 13 19 19 19 23 26 23 19 19 13 13 6 10 10 6 6 10 13 13 13 6 3 3 3 3 3 6 3 3 3 3 3 3
0 0 0 0 0 0 0 0 0 0 0 3 6 10 10 16 19 16 16 13 26 26 19 19 16 16 10 6 0 3 3 6 6 6 6 3 6 6 3 3 3 3 3 3 3 3 3 3 3
0 0 0 0 0 0 0 0 0 0 3 6 6 6 16 10 19 16 10 13 19 23 19 16 13 10 6 6 3 3 3 3 0 0 0 3 3 3 3 6 3 3 3 3 3 3 3 3 3
0 0 0 0 0 0 0 0 0 0 3 6 6 6 13 13 19 16 13 13 16 23 23 16 10 10 6 6 6 3 3 0 0 0 0 0 3 3 3 3 3 10 6 3 0 3 3 3 0
0 0 0 0 0 0 0 0 0 0 0 6 3 3 6 10 10 13 13 13 19 23 23 19 10 10 6 6 6 0 0 0 0 0 0 0 0 0 3 3 3 6 6 3 0 6 3 3 3
Height
5901 5901 5901 5902 5902 5902 5901 5900 5899 5899 5899 5899 5899 5898 5897 5896 5896 5897 5894 5891 5889 5888 5887 5886 5885 5885 5884 5884 5884 5884 5883 5883 5882 5882 5881 5881 5880 5880 5880 5879 5879 5878 5877 5877 5878 5878 5878 5878 5878
5900 5900 5901 5901 5901 5900 5900 5899 5898 5898 5898 5898 5898 5897 5896 5895 5894 5893 5891 5890 5888 5887 5887 5886 5885 5884 5884 5884 5883 5883 5883 5882 5882 5881 5880 5880 5879 5879 5879 5878 5878 5877 5877 5877 5877 5877 5877 5877 5877
5898 5898 5899 5899 5899 5899 5898 5898 5897 5896 5896 5897 5896 5896 5895 5894 5893 5891 5890 5889 5888 5887 5886 5885 5884 5883 5883 5883 5883 5882 5882 5882 5881 5881 5880 5879 5879 5878 5878 5877 5877 5876 5876 5876 5876 5876 5875 5875 5876
5897 5897 5898 5898 5897 5898 5897 5896 5896 5895 5895 5895 5895 5894 5893 5893 5891 5890 5889 5888 5887 5886 5885 5884 5883 5883 5882 5882 5882 5882 5881 5881 5880 5880 5879 5878 5878 5877 5877 5876 5876 5876 5875 5875 5875 5875 5875 5875 5874
5895 5895 5896 5895 5896 5896 5895 5894 5894 5895 5894 5893 5893 5892 5892 5891 5890 5889 5888 5887 5886 5885 5884 5883 5882 5882 5881 5881 5881 5881 5880 5880 5879 5879 5878 5877 5877 5876 5876 5876 5875 5875 5874 5874 5874 5874 5874 5873 5873
5893 5893 5894 5894 5894 5894 5894 5893 5893 5893 5892 5891 5891 5891 5891 5890 5889 5888 5886 5886 5885 5884 5883 5882 5881 5881 5880 5879 5879 5879 5879 5878 5878 5877 5877 5876 5875 5875 5875 5875 5874 5874 5873 5873 5873 5873 5872 5872 5872
5891 5891 5891 5892 5892 5892 5892 5892 5891 5891 5890 5890 5890 5889 5888 5888 5887 5886 5884 5884 5883 5882 5881 5880 5880 5879 5879 5878 5878 5877 5877 5877 5876 5876 5875 5875 5874 5874 5873 5873 5873 5873 5872 5872 5872 5871 5871 5871 5871
5887 5889 5889 5889 5890 5890 5891 5890 5890 5889 5888 5887 5887 5887 5886 5886 5885 5884 5883 5882 5881 5880 5879 5879 5878 5878 5877 5877 5876 5876 5875 5875 5874 5874 5873 5873 5873 5872 5872 5872 5872 5871 5871 5870 5870 5870 5869 5869 5869
5884 5886 5886 5887 5887 5888 5888 5888 5888 5887 5886 5885 5885 5885 5884 5883 5883 5882 5881 5880 5879 5878 5877 5877 5876 5876 5876 5875 5874 5874 5874 5873 5873 5872 5872 5871 5871 5871 5870 5870 5870 5870 5870 5869 5868 5868 5868 5868 5867
5880 5883 5884 5884 5884 5884 5884 5885 5885 5884 5884 5883 5882 5882 5881 5881 5880 5880 5879 5878 5878 5877 5876 5875 5874 5874 5873 5873 5873 5872 5872 5871 5871 5870 5870 5870 5869 5869 5869 5869 5869 5868 5868 5868 5867 5867 5867 5866 5866
5877 5879 5881 5881 5881 5881 5881 5881 5882 5882 5881 5881 5880 5879 5878 5878 5878 5877 5877 5876 5876 5875 5874 5873 5873 5872 5872 5871 5871 5870 5870 5869 5869 5868 5868 5868 5868 5868 5867 5867 5867 5867 5867 5866 5866 5865 5865 5865 5864
5874 5876 5877 5877 5878 5878 5878 5878 5879 5879 5879 5878 5877 5876 5876 5875 5875 5875 5874 5873 5873 5872 5872 5871 5871 5870 5870 5869 5869 5868 5868 5867 5866 5866 5866 5866 5866 5866 5866 5865 5865 5865 5865 5864 5864 5863 5863 5863 5862
5870 5872 5873 5873 5874 5874 5874 5875 5876 5876 5876 5875 5874 5873 5873 5872 5872 5872 5871 5870 5870 5870 5869 5869 5869 5868 5868 5867 5866 5866 5865 5865 5864 5864 5864 5864 5864 5864 5863 5863 5863 5863 5862 5862 5862 5862 5861 5860 5860
5866 5868 5869 5870 5871 5871 5871 5872 5872 5872 5872 5871 5870 5870 5869 5869 5869 5868 5868 5868 5867 5867 5866 5866 5866 5866 5865 5865 5864 5864 5863 5862 5862 5861 5862 5862 5862 5862 5861 5861 5861 5860 5860 5860 5859 5859 5859 5858 5858
5862 5864 5866 5867 5868 5868 5868 5869 5869 5869 5869 5868 5867 5867 5867 5866 5866 5865 5865 5865 5864 5864 5864 5863 5863 5863 5863 5862 5862 5861 5860 5860 5860 5859 5859 5859 5859 5859 5859 5858 5858 5858 5857 5857 5857 5857 5856 5856 5856
5858 5860 5862 5863 5863 5863 5865 5865 5866 5866 5865 5865 5865 5865 5864 5863 5863 5863 5862 5862 5862 5861 5861 5861 5860 5860 5860 5859 5859 5859 5858 5858 5857 5857 5857 5857 5857 5856 5856 5856 5855 5855 5855 5854 5854 5854 5854 5853 5853
5854 5855 5857 5858 5859 5858 5859 5860 5861 5861 5861 5861 5861 5861 5861 5860 5860 5860 5859 5859 5859 5858 5858 5858 5857 5856 5856 5856 5856 5856 5855 5855 5854 5854 5854 5854 5854 5853 5853 5853 5852 5852 5852 5851 5851 5851 5851 5850 5850
5850 5851 5852 5853 5853 5853 5854 5855 5856 5856 5856 5857 5857 5857 5857 5857 5856 5856 5856 5856 5856 5855 5855 5854 5854 5853 5853 5853 5852 5852 5852 5852 5851 5852 5851 5851 5850 5850 5850 5849 5849 5848 5848 5848 5847 5847 5847 5847 5847
5844 5845 5847 5849 5849 5848 5849 5850 5851 5851 5852 5852 5853 5853 5853 5853 5853 5853 5853 5853 5852 5852 5851 5851 5851 5851 5850 5849 5849 5849 5849 5848 5848 5848 5848 5848 5847 5847 5846 5845 5845 5844 5844 5844 5844 5844 5843 5843 5843
5839 5840 5842 5843 5844 5844 5844 5845 5847 5847 5848 5848 5848 5848 5848 5848 5849 5849 5849 5849 5849 5848 5848 5848 5848 5847 5847 5846 5846 5846 5845 5845 5845 5845 5844 5844 5843 5843 5842 5842 5841 5840 5840 5840 5840 5840 5840 5840 5840
5834 5836 5837 5838 5839 5839 5840 5841 5842 5843 5843 5843 5843 5844 5844 5844 5844 5844 5844 5844 5844 5844 5844 5844 5844 5843 5843 5843 5842 5842 5842 5841 5841 5841 5841 5840 5840 5839 5838 5838 5837 5836 5836 5836 5836 5836 5836 5836 5836
5829 5831 5832 5833 5833 5834 5835 5835 5837 5837 5838 5838 5838 5839 5839 5839 5839 5839 5840 5840 5840 5840 5840 5840 5840 5839 5839 5839 5838 5838 5838 5838 5838 5837 5837 5837 5836 5835 5834 5833 5833 5833 5832 5832 5832 5832 5832 5832 5831
5824 5826 5826 5827 5827 5829 5830 5830 5832 5832 5832 5833 5833 5833 5834 5834 5835 5835 5836 5836 5836 5836 5836 5836 5836 5835 5835 5835 5835 5834 5834 5834 5834 5833 5833 5832 5832 5831 5830 5830 5829 5828 5828 5828 5828 5827 5828 5827 5827
5818 5820 5821 5821 5822 5823 5825 5825 5826 5827 5827 5827 5827 5827 5828 5829 5830 5830 5831 5831 5831 5830 5830 5831 5831 5831 5831 5830 5830 5830 5830 5830 5830 5829 5829 5828 5827 5827 5827 5826 5825 5824 5824 5824 5823 5823 5823 5823 5822
5813 5815 5815 5815 5816 5817 5819 5819 5820 5821 5821 5822 5822 5823 5823 5823 5823 5825 5826 5826 5826 5825 5825 5825 5826 5826 5826 5825 5825 5825 5825 5825 5825 5825 5825 5824 5823 5823 5822 5822 5821 5820 5820 5819 5819 5818 5818 5818 5817
5808 5809 5810 5810 5811 5812 5813 5813 5815 5815 5815 5816 5817 5817 5817 5817 5818 5819 5820 5821 5821 5821 5820 5820 5821 5821 5821 5820 5819 5820 5821 5821 5820 5820 5819 5819 5818 5818 5818 5817 5816 5816 5815 5815 5814 5813 5813 5812 5812
5802 5803 5805 5805 5805 5806 5807 5808 5809 5809 5809 5810 5810 5811 5812 5812 5813 5814 5815 5816 5816 5816 5816 5815 5815 5816 5816 5815 5814 5815 5815 5815 5815 5815 5814 5814 5813 5813 5813 5812 5812 5811 5811 5810 5809 5809 5808 5808 5807
5798 5799 5800 5800 5799 5800 5801 5802 5803 5803 5804 5804 5805 5806 5807 5808 5808 5809 5810 5810 5810 5810 5810 5810 5809 5810 5810 5810 5810 5810 5810 5810 5810 5809 5809 5808 5808 5808 5808 5807 5807 5806 5806 5805 5804 5804 5803 5802 5801
5792 5793 5793 5794 5795 5795 5795 5799 5799 5799 5799 5799 5800 5801 5802 5803 5804 5805 5805 5805 5805 5804 5804 5804 5804 5804 5804 5805 5805 5805 5805 5804 5804 5804 5803 5803 5803 5803 5802 5802 5802 5801 5801 5800 5799 5798 5798 5797 5796
5786 5787 5788 5790 5790 5791 5791 5795 5794 5794 5794 5794 5795 5795 5796 5797 5798 5799 5799 5799 5799 5798 5798 5798 5799 5798 5798 5799 5799 5799 5799 5799 5798 5798 5798 5798 5797 5797 5797 5796 5796 5796 5795 5794 5793 5792 5792 5791 5790
Wind_Speed
5 4 3 2 2 2 2 4 5 6 7 8 8 9 9 9 9 9 9 9 8 8 8 8 8 7 7 6 5 5 5 5 5 5 5 5 6 6 6 6 6 6 6 6 6 5 5 6 6
7 6 5 4 3 3 3 5 6 7 7 8 9 10 10 9 9 9 9 9 9 8 8 8 7 6 6 5 5 5 5 5 5 5 5 5 5 5 6 6 6 6 6 6 6 6 6 6 6
8 7 6 5 4 4 4 5 7 8 9 8 9 9 10 9 9 10 10 9 8 8 9 8 7 6 6 5 5 5 5 6 6 5 5 5 5 5 6 6 7 7 7 7 7 7 6 6 7
9 8 7 6 5 5 5 6 7 8 10 10 10 10 10 10 9 10 10 9 9 9 9 8 7 6 6 6 6 6 6 6 6 6 5 5 5 5 6 6 7 8 8 8 7 6 6 7 7
10 9 8 7 7 6 7 6 6 9 11 11 10 11 10 10 10 10 10 10 9 9 9 8 7 6 6 6 6 6 6 6 7 6 6 6 5 6 6 6 6 7 7 7 7 6 6 6 7
11 10 9 8 7 7 7 6 9 10 12 12 12 12 11 9 9 9 9 10 10 9 9 8 8 7 7 7 6 6 7 6 7 7 7 7 6 7 6 6 7 7 6 6 6 6 6 6 7
12 11 10 9 9 8 7 7 9 11 13 14 13 12 12 11 10 9 9 10 9 9 9 8 7 7 7 7 7 7 7 7 7 7 7 8 7 6 6 7 7 7 7 6 6 6 6 6 6
13 12 11 11 10 9 8 8 10 12 13 14 13 13 13 12 10 10 10 10 10 10 9 8 8 8 7 7 7 7 7 7 7 7 8 8 7 7 6 7 7 7 6 6 6 6 7 7 7
15 13 12 11 10 9 9 9 10 12 13 13 14 13 13 12 11 10 10 10 10 10 9 9 8 8 7 7 8 7 8 8 8 8 8 8 7 7 6 7 7 7 7 7 7 6 7 7 7
16 14 13 13 12 10 10 10 10 12 13 14 14 13 12 13 12 11 11 10 10 9 9 9 8 8 8 8 8 8 8 9 8 9 9 8 7 7 6 7 8 7 7 7 7 7 7 7 8
17 15 15 15 13 12 12 11 12 12 14 15 14 13 13 13 13 12 11 10 9 9 9 8 7 8 9 9 8 9 9 9 8 8 8 8 7 6 6 7 8 8 7 7 7 8 8 7 8
17 16 17 16 15 14 13 13 13 13 14 15 15 15 15 14 13 12 13 11 11 9 9 9 8 8 9 9 8 9 10 9 8 8 8 8 7 7 7 7 7 8 8 8 8 8 8 8 9
19 18 17 18 17 16 15 15 14 14 14 15 16 16 16 14 13 13 13 13 11 11 10 9 9 9 9 9 9 9 9 9 9 9 9 9 9 8 8 8 8 8 8 9 9 9 9 9 9
19 19 18 18 17 17 16 15 16 15 14 16 16 17 16 15 14 14 14 13 13 12 11 11 10 10 10 9 9 10 9 9 8 8 8 9 9 9 10 10 9 10 10 10 10 10 9 9 10
19 19 18 16 16 16 17 15 15 14 15 15 17 17 16 16 16 16 16 15 12 12 11 11 10 10 10 10 10 10 9 9 8 8 9 9 10 10 10 10 10 10 11 10 10 10 10 10 10
18 17 16 15 15 15 16 15 14 15 15 16 17 18 17 17 16 15 15 14 13 13 12 12 11 10 11 10 10 10 9 9 9 9 10 10 11 11 12 11 11 11 11 11 11 11 11 11 10
18 17 16 15 15 16 17 16 16 16 16 17 18 18 17 17 16 15 15 15 15 15 14 12 12 11 11 10 10 10 10 10 9 10 11 11 12 12 12 12 12 12 12 12 12 12 12 11 11
17 17 18 17 16 17 18 18 17 16 15 16 17 18 17 17 15 15 15 15 15 15 14 13 12 11 11 10 10 10 10 10 10 10 10 11 12 12 13 13 13 13 13 12 13 13 12 12 12
20 20 19 18 18 19 18 18 17 16 16 16 17 17 17 17 16 14 14 14 14 14 14 12 11 11 11 11 11 11 11 11 11 11 10 11 12 12 12 13 13 13 13 13 13 13 13 13 13
21 21 20 20 19 19 19 19 18 17 18 18 17 17 18 17 17 16 14 14 14 13 12 12 12 12 12 12 12 11 12 12 12 12 12 12 12 12 13 12 12 12 13 13 14 14 14 14 14
21 21 21 21 21 22 22 21 20 19 20 20 19 19 18 18 18 17 16 14 15 14 12 12 12 12 13 13 12 12 12 13 12 12 12 12 13 13 13 13 13 12 13 14 15 15 15 15 15
19 18 20 21 22 23 23 23 22 20 20 20 20 20 18 18 18 18 17 16 16 16 14 13 13 13 13 14 14 13 13 13 13 12 12 12 13 13 13 13 12 13 14 15 16 15 15 15 15
20 19 19 21 23 24 24 24 21 21 21 21 21 20 19 19 18 18 18 18 17 17 16 15 14 14 14 14 14 14 14 14 14 13 13 13 14 13 13 13 13 13 14 15 15 15 15 16 16
20 21 21 22 23 24 21 23 23 21 21 21 21 20 19 19 19 18 18 18 18 18 18 17 17 16 15 15 14 14 14 15 15 14 14 15 15 15 14 15 15 14 14 15 15 16 16 16 16
21 21 22 22 23 22 20 22 22 20 20 20 20 20 20 19 20 19 18 19 19 19 18 18 18 17 17 15 15 14 15 15 16 16 16 16 16 16 15 15 15 15 15 15 16 16 17 17 17
20 21 21 22 21 20 20 22 20 19 18 18 18 19 19 18 19 18 19 19 19 19 19 18 19 18 18 18 17 16 16 16 17 17 17 16 16 16 16 16 16 16 16 16 16 16 17 17 17
21 20 20 22 22 22 21 21 20 19 18 17 17 17 18 18 18 18 18 18 19 19 20 20 19 20 19 20 18 18 17 18 18 18 17 17 17 17 18 18 18 17 17 17 17 16 17 17 17
21 20 20 21 22 22 22 21 20 19 17 17 18 17 19 19 19 19 20 20 20 21 21 21 19 18 19 19 19 19 18 19 19 19 18 18 18 18 18 18 18 18 18 18 18 17 18 18 18
22 22 22 22 23 23 23 21 21 20 18 17 17 18 18 19 18 19 20 21 21 20 19 20 20 19 18 18 19 20 20 20 20 19 19 18 18 19 19 19 19 18 18 19 18 18 18 19 19
23 23 24 24 23 23 23 21 18 19 19 18 18 19 19 19 18 18 19 20 20 20 20 20 20 20 18 18 19 20 20 19 19 19 19 19 18 19 19 20 20 19 19 19 19 19 19 19 18
Wind_Direction
203 202 203 209 226 243 307 331 338 339 338 330 323 316 313 316 321 323 324 324 327 330 333 330 321 313 319 315 303 295 298 302 299 295 298 290 286 288 289 283 274 276 272 265 261 259 251 242 241
211 210 213 215 232 256 291 309 324 330 329 328 320 314 311 311 314 315 319 322 321 322 325 324 323 321 316 310 304 297 301 304 301 297 299 293 291 287 289 281 274 272 266 264 265 266 262 253 251
222 222 220 220 223 259 290 303 316 321 320 317 313 309 309 311 312 314 319 319 317 320 320 315 315 317 313 310 305 303 300 304 301 299 300 291 291 289 289 282 273 277 266 263 263 263 264 259 258
225 225 223 227 225 254 275 296 311 308 309 306 306 305 309 310 311 313 315 317 320 321 319 314 308 305 306 307 305 301 301 304 299 294 294 294 287 282 285 287 279 275 272 269 268 266 263 257 259
223 225 227 229 229 248 264 287 298 295 298 301 307 308 308 313 314 312 313 315 318 317 316 312 311 305 304 307 312 307 301 303 303 296 291 291 289 282 287 285 284 282 278 274 266 269 262 255 258
225 226 228 230 234 245 258 278 288 290 297 300 301 300 303 311 315 316 314 316 315 312 310 309 309 307 301 296 299 305 302 300 302 301 299 297 285 285 283 282 283 284 288 279 276 281 267 257 257
229 228 227 229 236 248 257 269 278 288 295 301 301 301 305 312 316 315 314 316 317 315 311 302 301 301 302 302 297 294 294 296 298 297 295 297 290 290 282 274 276 278 279 278 278 282 277 274 270
229 230 228 231 237 251 261 275 276 286 293 299 299 303 305 307 311 315 316 315 317 317 313 306 298 298 301 301 308 302 296 296 297 299 296 300 297 290 284 275 272 273 274 279 283 282 281 280 276
228 230 228 231 237 249 257 270 272 281 289 294 297 301 301 303 304 307 312 311 311 312 314 310 301 299 303 304 306 308 304 302 299 299 298 301 296 289 286 275 277 270 268 276 280 281 281 278 278
229 228 225 230 234 244 253 262 269 277 285 288 295 297 299 300 299 301 306 309 309 307 310 309 303 299 297 302 301 303 305 304 302 299 295 296 291 284 283 279 279 273 271 273 276 276 286 279 278
231 226 226 232 234 243 251 259 267 273 281 287 292 291 296 296 295 300 304 302 305 301 304 304 301 300 295 294 298 300 301 300 300 298 295 293 288 285 289 286 279 275 274 275 278 279 286 288 281
230 227 227 232 234 238 247 254 260 268 275 283 288 290 292 294 298 299 304 300 301 300 300 300 296 297 296 293 295 297 297 295 293 291 291 288 286 282 286 288 283 280 279 274 274 277 286 291 283
230 229 231 234 233 237 246 254 261 270 275 279 285 288 291 294 293 295 300 297 298 297 297 299 299 296 294 294 297 298 298 295 290 287 288 285 285 289 290 287 291 287 283 280 278 281 284 288 286
233 234 234 236 237 243 247 254 265 270 273 278 281 283 287 291 290 293 296 297 294 294 297 295 295 295 292 292 294 296 297 296 296 294 290 287 285 287 288 286 290 283 279 277 275 276 280 282 280
234 236 238 239 242 250 255 258 268 271 272 274 277 279 282 284 286 287 290 292 290 293 294 291 290 288 287 288 292 295 294 291 291 290 288 287 287 285 284 283 285 281 278 279 277 272 273 276 277
239 239 240 240 244 248 255 257 258 268 272 272 276 279 279 279 281 283 285 285 286 289 287 285 286 283 283 286 288 289 287 285 286 285 285 285 284 281 278 278 278 278 279 277 275 273 273 274 275
240 245 244 243 244 247 254 256 258 265 272 276 278 280 282 280 280 283 283 285 283 284 279 278 281 285 286 286 286 285 283 285 285 285 283 283 281 278 275 273 275 274 273 274 273 273 274 275 276
240 243 243 245 244 247 253 257 256 260 265 274 279 281 282 281 279 279 277 282 282 281 281 278 279 282 284 284 284 281 283 284 285 286 285 281 280 280 280 275 273 273 273 274 271 271 270 270 275
241 241 243 242 245 251 255 258 255 258 264 272 278 279 277 278 276 276 276 277 281 282 280 278 279 279 275 278 283 281 281 281 282 282 283 282 282 281 281 276 274 275 274 273 272 270 270 270 273
242 243 244 242 242 249 253 253 257 263 267 271 275 278 276 273 272 272 274 275 276 277 275 273 277 276 276 276 281 280 277 277 278 277 279 280 279 282 281 280 276 278 278 273 271 273 270 269 272
241 246 248 248 247 248 254 253 254 259 262 265 270 274 275 272 271 271 272 275 271 271 273 272 274 274 272 275 280 279 277 276 274 274 277 281 282 281 278 278 277 279 280 276 271 270 268 270 271
243 246 247 249 250 246 251 257 256 258 260 260 264 267 268 266 268 269 270 271 272 269 270 272 273 272 270 272 274 276 277 276 274 273 275 279 283 281 276 280 279 279 278 275 269 268 269 271 269
244 246 249 251 251 248 250 258 258 258 259 259 260 262 264 264 264 265 268 267 270 268 266 268 269 269 270 271 272 273 276 275 273 271 274 277 278 280 279 279 279 278 276 275 269 269 270 270 270
246 248 251 252 251 253 252 256 259 259 259 261 259 261 266 264 260 259 263 265 265 266 267 267 266 266 270 272 271 271 274 274 272 271 273 277 277 275 277 277 279 276 274 274 272 270 270 270 271
241 245 249 250 249 253 255 258 261 261 261 260 261 264 265 264 261 258 260 265 263 267 271 269 268 266 268 272 271 270 273 273 272 272 275 278 277 274 274 275 276 273 271 272 272 271 272 273 271
239 243 248 251 253 253 253 259 261 259 258 259 258 260 259 265 264 256 256 261 261 265 270 269 270 269 270 272 274 270 273 275 275 275 275 276 275 273 274 274 274 273 272 271 272 272 273 272 271
237 244 249 253 255 256 255 258 260 259 257 256 257 256 257 259 261 258 259 261 262 264 265 266 269 269 271 272 271 269 272 273 276 278 276 274 271 271 272 272 271 272 276 277 276 277 274 273 273
237 242 245 251 254 258 257 258 258 257 258 259 256 253 255 258 261 263 267 267 272 272 268 267 271 271 273 271 270 269 270 273 274 277 277 273 269 271 273 273 274 275 277 280 279 277 275 276 276
232 236 243 250 254 257 259 258 260 258 262 264 259 255 257 259 261 264 265 268 270 270 273 276 277 274 272 271 270 271 271 273 273 273 274 272 269 268 271 272 274 274 275 279 280 277 275 276 273
233 237 241 245 250 254 257 259 259 257 261 264 264 261 260 261 262 263 266 268 267 268 272 274 275 272 273 274 275 276 273 271 272 274 273 272 271 271 271 273 274 274 275 277 280 279 276 272 272